Weather History for KRAP - May, 2014

Change the Weather History Date:

Friday, May 9, 2014

  Actual Average Record
Temperature  
Mean Temperature 45 °F 53 °F  
Max Temperature 62 °F 66 °F 86 °F (1962)
Min Temperature 27 °F 40 °F 25 °F (2002)
Degree Days  
Heating Degree Days 20 12  
Month to date heating degree days 158 123  
Since 1 July heating degree days 7450 6852  
Cooling Degree Days 0 0  
Month to date cooling degree days 0 0  
Year to date cooling degree days 0 2  
Moisture  
Dew Point 37 °F    
Average Humidity 66    
Maximum Humidity 92    
Minimum Humidity 39    
Precipitation  
Precipitation T in 0.10 in 1.17 in (2015)
Month to date precipitation 0.85 0.85  
Year to date precipitation 4.70 4.32  
Snow  
Snow 0.00 in 0.10 in 3.70 in (1965)
Month to date snowfall 0.1 0.8  
Since 1 July snowfall 63.8 40.8  
Snow Depth 0.00 in    
Sea Level Pressure  
Sea Level Pressure 29.77 in    
Wind  
Wind Speed 8 mph (SE)    
Max Wind Speed 18 mph    
Max Gust Speed 23 mph    
Visibility 10 miles    
Events Rain    
T = Trace of Precipitation, MM = Missing Value Source: NWS Daily Summary

Daily Weather History Graph

Daily Weather History Graph

Search for Another Location

Airport or City:

Trip Planner

Search our weather history database for the weather conditions in past years. The results will help you decide how hot, cold, wet, or windy it might be!

Date:

Astronomy

May. 09, 2014 Rise Set
Actual Time 5:32 AM MDT 8:05 PM MDT
Civil Twilight 5:00 AM MDT 8:37 PM MDT
Nautical Twilight 4:19 AM MDT 9:18 PM MDT
Astronomical Twilight 3:33 AM MDT 10:05 PM MDT
Moon 2:54 PM MDT (5/9) 2:47 AM MDT (5/9)
Length of Visible Light 15h 37m
Length of Day
14h 32m
Waxing Gibbous, 74% of the Moon is Illuminated
May 9
Waxing Gibbous
May 14
Full
May 21
Last Quarter
May 28
New
Jun 5
First Quarter

Hourly Weather History & Observations

Time (MDT) Temp. Windchill Dew Point Humidity Pressure Visibility Wind Dir Wind Speed Gust Speed Precip Events Conditions
12:52 AM 30.9 °F - 28.9 °F 92% 29.94 in 10.0 mi Calm Calm - N/A   Clear
1:52 AM 30.0 °F - 27.0 °F 88% 29.91 in 10.0 mi Calm Calm - N/A   Clear
2:52 AM 30.0 °F - 28.0 °F 92% 29.91 in 10.0 mi Calm Calm - N/A   Clear
3:52 AM 28.0 °F 22.8 °F 26.1 °F 92% 29.90 in 10.0 mi WNW 4.6 mph - N/A   Clear
4:52 AM 32.0 °F 26.4 °F 28.0 °F 85% 29.87 in 10.0 mi West 5.8 mph - N/A   Clear
5:52 AM 33.1 °F 26.1 °F 28.9 °F 85% 29.85 in 10.0 mi WNW 8.1 mph - N/A   Clear
6:52 AM 35.1 °F - 32.0 °F 89% 29.84 in 10.0 mi Calm Calm - N/A   Clear
7:52 AM 39.0 °F 35.7 °F 34.0 °F 82% 29.84 in 10.0 mi SSE 4.6 mph - N/A   Clear
8:52 AM 44.6 °F 41.4 °F 37.4 °F 76% 29.79 in 10.0 mi SE 5.8 mph - N/A   Clear
9:52 AM 50.0 °F - 39.0 °F 66% 29.80 in 10.0 mi SSE 8.1 mph - N/A   Clear
10:52 AM 54.0 °F - 39.0 °F 57% 29.79 in 10.0 mi SE 10.4 mph - N/A   Clear
11:52 AM 57.0 °F - 39.0 °F 51% 29.78 in 10.0 mi SSE 13.8 mph - N/A   Clear
12:52 PM 57.9 °F - 37.0 °F 46% 29.77 in 10.0 mi SSE 12.7 mph - N/A   Clear
1:52 PM 60.1 °F - 35.1 °F 39% 29.75 in 10.0 mi SE 8.1 mph - N/A   Clear
2:52 PM 61.0 °F - 44.1 °F 54% 29.72 in 10.0 mi SSE 10.4 mph - N/A   Clear
3:52 PM 61.0 °F - 42.1 °F 50% 29.70 in 10.0 mi SE 15.0 mph - N/A   Clear
4:52 PM 61.0 °F - 43.0 °F 52% 29.68 in 10.0 mi SE 13.8 mph - N/A   Clear
5:52 PM 57.0 °F - 39.9 °F 53% 29.69 in 10.0 mi ESE 15.0 mph - N/A   Clear
6:52 PM 55.0 °F - 41.0 °F 59% 29.69 in 10.0 mi ESE 8.1 mph - N/A   Clear
7:52 PM 52.0 °F - 43.0 °F 71% 29.69 in 10.0 mi East 8.1 mph - 0.00 in Rain Light Rain
8:52 PM 50.0 °F - 42.8 °F 76% 29.69 in 10.0 mi WNW 3.5 mph - N/A   Mostly Cloudy
9:52 PM 50.0 °F - 43.0 °F 77% 29.69 in 10.0 mi East 8.1 mph - 0.00 in   Overcast
10:52 PM 48.9 °F - 42.1 °F 77% 29.66 in 10.0 mi ESE 12.7 mph - N/A   Overcast
11:52 PM 48.0 °F - 41.0 °F 77% 29.65 in 10.0 mi ESE 4.6 mph - N/A   Mostly Cloudy